Campo, CA

12:40 PM PDT on July 23, 2017 (GMT -0700)
Campo

Weather History for KCZZ - December, 2011

Change the Weather History Date:

Tuesday, December 27, 2011

  Actual Average Record
Temperature  
Mean Temperature 47 °F 48 °F  
Max Temperature 69 °F 62 °F 82 °F (1980)
Min Temperature 24 °F 33 °F 20 °F (1988)
Degree Days  
Heating Degree Days 18 17  
Month to date heating degree days 591 471  
Since 1 July heating degree days 1223 1041  
Cooling Degree Days 0 0  
Month to date cooling degree days 0 0  
Year to date cooling degree days 733 841  
Moisture  
Dew Point 13 °F    
Average Humidity 37    
Maximum Humidity 62    
Minimum Humidity 11    
Precipitation  
Precipitation 0.00 in 0.09 in 1.12 in (1984)
Month to date precipitation 1.49 1.92  
Year to date precipitation 12.99 15.38  
Since 1 July precipitation 5.24  
Snow  
Snow 0.00 in - - ()
Month to date snowfall 0.0  
Year to date snowfall 0.0  
Snow Depth 0.00 in    
Sea Level Pressure  
Sea Level Pressure 30.16 in    
Wind  
Wind Speed 6 mph (ENE)    
Max Wind Speed 14 mph    
Max Gust Speed 17 mph    
T = Trace of Precipitation, MM = Missing Value Source: NWS Daily Summary

Daily Weather History Graph

Daily Weather History Graph

Search for Another Location

Airport or City:

Trip Planner

Search our weather history database for the weather conditions in past years. The results will help you decide how hot, cold, wet, or windy it might be!

Date:

Astronomy

Dec. 27, 2011 Rise Set
Actual Time 6:46 AM PST 4:47 PM PST
Civil Twilight 6:19 AM PST 5:14 PM PST
Nautical Twilight 5:48 AM PST 5:45 PM PST
Astronomical Twilight 5:18 AM PST 6:15 PM PST
Moon 8:53 AM PST (12/27) 8:14 PM PST (12/27)
Length of Visible Light 10h 55m
Length of Day
10h 01m
Waxing Crescent, 11% of the Moon is Illuminated
Dec 27
Waxing Crescent
Dec 31
First Quarter
Jan 8
Full
Jan 16
Last Quarter
Jan 22
New

Hourly Weather History & Observations

Time (PST) Temp. Windchill Dew Point Humidity Pressure Visibility Wind Dir Wind Speed Gust Speed Precip Events Conditions
12:52 AM 25.0 °F 19.3 °F 14.0 °F 63% 30.19 in - NE 4.6 mph - N/A   Unknown
1:52 AM 30.9 °F 24.3 °F 14.0 °F 50% 30.17 in - NE 6.9 mph - N/A   Unknown
2:52 AM 28.9 °F 21.9 °F 12.9 °F 51% 30.17 in - NE 6.9 mph - N/A   Unknown
3:52 AM 28.9 °F 21.1 °F 12.0 °F 49% 30.17 in - NE 8.1 mph - N/A   Unknown
4:52 AM 30.0 °F 22.4 °F 12.0 °F 47% 30.17 in - NE 8.1 mph - N/A   Unknown
5:52 AM 26.1 °F 19.4 °F 12.9 °F 58% 30.19 in - NE 5.8 mph - N/A   Unknown
6:52 AM 28.9 °F 20.4 °F 12.9 °F 51% 30.20 in - ENE 9.2 mph - N/A   Unknown
7:52 AM 37.9 °F 33.5 °F 15.1 °F 39% 30.20 in - NE 5.8 mph - N/A   Unknown
8:52 AM 46.9 °F - 21.0 °F 36% 30.19 in - Calm Calm - N/A   Unknown
9:52 AM 57.0 °F - 19.9 °F 24% 30.18 in - Calm Calm - N/A   Unknown
10:52 AM 64.9 °F - 10.9 °F 12% 30.15 in - SW 4.6 mph - N/A   Unknown
11:52 AM 66.9 °F - 10.9 °F 11% 30.13 in - SW 6.9 mph - N/A   Unknown
12:52 PM 68.0 °F - 14.0 °F 12% 30.11 in - SW 10.4 mph - N/A   Unknown
1:52 PM 68.0 °F - 18.0 °F 15% 30.08 in - SSW 10.4 mph - N/A   Unknown
2:52 PM 68.0 °F - 17.1 °F 14% 30.09 in - SW 4.6 mph - N/A   Unknown
3:52 PM 63.0 °F - 12.9 °F 14% 30.11 in - East 11.5 mph - N/A   Unknown
3:56 PM 62.6 °F - 12.2 °F 14% 30.14 in - East 9.2 mph - N/A   Unknown
4:52 PM 55.9 °F - 12.9 °F 18% 30.14 in - East 13.8 mph - N/A   Unknown
5:52 PM 51.1 °F - 12.9 °F 22% 30.18 in - NE 6.9 mph - N/A   Unknown
6:52 PM 48.0 °F - 10.9 °F 22% 30.19 in - NE 8.1 mph - N/A   Unknown
7:52 PM 48.0 °F - 10.9 °F 22% 30.18 in - NE 12.7 mph - N/A   Unknown
8:52 PM 50.0 °F - 9.0 °F 19% 30.16 in - ENE 15.0 mph - N/A   Unknown
9:52 PM 39.9 °F - 14.0 °F 35% 30.18 in - Calm Calm - N/A   Unknown
10:52 PM 46.9 °F - 10.9 °F 23% 30.15 in - NE 6.9 mph - N/A   Unknown
11:52 PM 53.1 °F - 9.0 °F 17% 30.14 in - ENE 11.5 mph - N/A   Unknown